Location: Vancouver
(49.2500°N, 123.1330°W)
Time: 17:22:39
(UTC-08:00)

AO-27 - Visible Passes

Search period start: 11 February 2016 00:00
Search period end: 21 February 2016 00:00
Orbit: 786 x 797 km, 98.7° (Epoch: 10 February)

Date Brightness Start Highest point End Pass type
(mag) Time Alt. Az. Time Alt. Az. Time Alt. Az.
11 Feb 10.6 02:57:53 10° NNE 02:57:57 10° NNE 02:57:57 10° NNE visible
11 Feb 9.9 04:38:09 10° N 04:38:44 12° NNW 04:38:44 12° NNW visible
12 Feb 10.0 04:08:42 10° N 04:09:30 14° N 04:09:30 14° N visible
13 Feb 10.1 03:39:28 10° N 03:40:16 14° N 03:40:16 14° N visible
14 Feb 10.3 03:10:25 10° NNE 03:11:02 13° NNE 03:11:02 13° NNE visible
14 Feb 9.8 04:51:01 10° NNW 04:51:47 13° NNW 04:51:47 13° NNW visible
15 Feb 10.6 02:41:33 10° NNE 02:41:48 11° NNE 02:41:48 11° NNE visible
15 Feb 9.8 04:21:26 10° N 04:22:34 16° N 04:22:34 16° N visible
16 Feb 9.8 03:52:07 10° N 03:53:20 17° N 03:53:20 17° N visible
17 Feb 10.0 03:22:59 10° NNE 03:24:07 17° NNE 03:24:07 17° NNE visible
17 Feb 9.8 05:03:58 10° NNW 05:04:53 13° NNW 05:04:53 13° NNW visible
18 Feb 10.3 02:54:03 10° NNE 02:54:53 15° NNE 02:54:53 15° NNE visible
18 Feb 9.6 04:34:13 10° N 04:35:39 16° NNW 04:35:39 16° NNW visible
19 Feb 10.6 02:25:19 10° NNE 02:25:40 12° NNE 02:25:40 12° NNE visible
19 Feb 9.6 04:04:48 10° N 04:06:26 19° N 04:06:26 19° N visible
20 Feb 9.7 03:35:36 10° N 03:37:13 20° N 03:37:13 20° N visible
20 Feb 9.8 05:17:06 10° NNW 05:17:59 12° NW 05:17:59 12° NW visible
